• In Austria
  • List of Countries
  • For 7 days
  • Water Temperature
  • Satellite Maps
  • Weather Map
  • News
  • Weather Widgets
  • user-avatar
    Login

    Hourly Weather Lubango

    Today, 21 October, Saturday

    Time Temperature Precipitation Wind Pressure Humidity
    00:00 +16°C° 0 mm 1 mps 610 mmHg 59%
    01:00 +16°C° 0 mm 1 mps 609 mmHg 62%
    02:00 +16°C° 0 mm 1 mps 609 mmHg 62%
    03:00 +15°C° 0 mm 1 mps 609 mmHg 63%
    04:00 +15°C° 0 mm 1 mps 609 mmHg 63%
    05:00 +18°C° 0 mm 1 mps 610 mmHg 55%
    06:00 +19°C° 0 mm 1 mps 610 mmHg 48%
    07:00 +21°C° 0 mm 1 mps 611 mmHg 40%
    08:00 +24°C° 0 mm 2 mps 612 mmHg 32%
    09:00 +27°C° 0 mm 2 mps 614 mmHg 23%
    10:00 +30°C° 0 mm 3 mps 615 mmHg 15%
    11:00 +31°C° 0 mm 3 mps 615 mmHg 14%
    12:00 +34°C° 0 mm 3 mps 614 mmHg 13%
    13:00 +35°C° 0 mm 3 mps 614 mmHg 11%
    14:00 +34°C° 0 mm 3 mps 614 mmHg 14%
    15:00 +33°C° 0 mm 4 mps 613 mmHg 16%
    16:00 +30°C° 0 mm 4 mps 612 mmHg 18%
    17:00 +27°C° 0 mm 4 mps 611 mmHg 27%
    18:00 +24°C° 0 mm 3 mps 611 mmHg 36%
    19:00 +20°C° 0 mm 3 mps 610 mmHg 45%
    20:00 +19°C° 0 mm 2 mps 610 mmHg 48%
    21:00 +18°C° 0 mm 2 mps 610 mmHg 51%
    22:00 +18°C° 0 mm 1 mps 610 mmHg 54%
    23:00 +18°C° 0 mm 1 mps 610 mmHg 54%

    Tomorrow, 22 October, Sunday

    Time Temperature Precipitation Wind Pressure Humidity
    00:00 +16°C° 0 mm 1 mps 610 mmHg 53%
    01:00 +16°C° 0 mm 1 mps 609 mmHg 53%
    02:00 +15°C° 0 mm 1 mps 609 mmHg 52%
    03:00 +15°C° 0 mm 1 mps 609 mmHg 51%
    04:00 +14°C° 0 mm 0 mps 609 mmHg 49%
    05:00 +16°C° 0 mm 0 mps 610 mmHg 43%
    06:00 +19°C° 0 mm 1 mps 611 mmHg 38%
    07:00 +21°C° 0 mm 1 mps 612 mmHg 32%
    08:00 +24°C° 0 mm 2 mps 613 mmHg 25%
    09:00 +28°C° 0 mm 3 mps 614 mmHg 19%
    10:00 +32°C° 0 mm 4 mps 615 mmHg 13%
    11:00 +33°C° 0 mm 4 mps 615 mmHg 13%
    12:00 +34°C° 0 mm 4 mps 615 mmHg 12%
    13:00 +35°C° 0 mm 4 mps 614 mmHg 11%
    14:00 +34°C° 0 mm 4 mps 613 mmHg 14%
    15:00 +31°C° 0 mm 3 mps 612 mmHg 16%
    16:00 +29°C° 0 mm 3 mps 611 mmHg 19%
    17:00 +27°C° 0 mm 3 mps 611 mmHg 24%
    18:00 +25°C° 0 mm 2 mps 611 mmHg 29%
    19:00 +21°C° 0 mm 2 mps 610 mmHg 34%
    20:00 +22°C° 0 mm 1 mps 610 mmHg 37%
    21:00 +21°C° 0 mm 1 mps 610 mmHg 40%
    22:00 +18°C° 0 mm 0 mps 610 mmHg 43%
    23:00 +20°C° 0 mm 1 mps 610 mmHg 43%

    Day after tomorrow, 23 October, Monday

    Time Temperature Precipitation Wind Pressure Humidity
    00:00 +19°C° 0 mm 1 mps 610 mmHg 43%
    01:00 +19°C° 0 mm 1 mps 609 mmHg 44%
    02:00 +19°C° 0 mm 1 mps 609 mmHg 45%
    03:00 +18°C° 0 mm 1 mps 609 mmHg 46%
    04:00 +18°C° 0 mm 1 mps 608 mmHg 47%
    05:00 +19°C° 0 mm 1 mps 609 mmHg 45%
    06:00 +21°C° 0 mm 1 mps 610 mmHg 43%
    07:00 +22°C° 0 mm 1 mps 611 mmHg 41%
    08:00 +25°C° 0 mm 2 mps 612 mmHg 35%
    09:00 +28°C° 0 mm 2 mps 613 mmHg 28%
    10:00 +32°C° 0 mm 2 mps 614 mmHg 21%
    11:00 +32°C° 0 mm 2 mps 613 mmHg 21%
    12:00 +32°C° 0 mm 2 mps 613 mmHg 20%
    13:00 +32°C° 0 mm 2 mps 612 mmHg 20%
    14:00 +31°C° 0.2 mm 2 mps 611 mmHg 23%
    15:00 +29°C° 0.2 mm 2 mps 610 mmHg 26%
    16:00 +28°C° 0.2 mm 2 mps 610 mmHg 29%
    17:00 +26°C° 0.1 mm 2 mps 610 mmHg 35%
    18:00 +24°C° 0.1 mm 2 mps 610 mmHg 41%
    19:00 +21°C° 0.1 mm 2 mps 609 mmHg 46%
    20:00 +20°C° 0.2 mm 2 mps 609 mmHg 51%
    21:00 +20°C° 0.2 mm 1 mps 610 mmHg 56%
    22:00 +19°C° 0.2 mm 1 mps 610 mmHg 61%
    23:00 +19°C° 0.1 mm 1 mps 609 mmHg 62%

    24 October, Tuesday

    Time Temperature Precipitation Wind Pressure Humidity
    00:00 +19°C° 0.1 mm 1 mps 609 mmHg 64%
    01:00 +16°C° 0.1 mm 0 mps 608 mmHg 65%
    02:00 +16°C° 0.5 mm 0 mps 608 mmHg 65%
    03:00 +16°C° 0.5 mm 0 mps 608 mmHg 66%
    04:00 +16°C° 0.5 mm 0 mps 608 mmHg 67%
    05:00 +18°C° 0.5 mm 1 mps 608 mmHg 64%
    06:00 +19°C° 0.5 mm 1 mps 609 mmHg 60%
    07:00 +20°C° 0.5 mm 1 mps 610 mmHg 57%
    08:00 +23°C° 0 mm 1 mps 611 mmHg 49%
    09:00 +25°C° 0 mm 2 mps 612 mmHg 41%
    10:00 +28°C° 0 mm 2 mps 613 mmHg 32%
    11:00 +28°C° 0.2 mm 2 mps 612 mmHg 32%
    12:00 +29°C° 0.2 mm 2 mps 612 mmHg 31%
    13:00 +29°C° 0.2 mm 2 mps 612 mmHg 31%
    14:00 +28°C° 0.3 mm 3 mps 611 mmHg 34%
    15:00 +27°C° 0.3 mm 3 mps 610 mmHg 38%
    16:00 +26°C° 0.3 mm 3 mps 610 mmHg 41%
    17:00 +24°C° 0.5 mm 3 mps 610 mmHg 50%
    18:00 +21°C° 0.5 mm 2 mps 610 mmHg 58%
    19:00 +19°C° 0.5 mm 2 mps 610 mmHg 67%
    20:00 +19°C° 0.6 mm 2 mps 610 mmHg 70%
    21:00 +20°C° 0.6 mm 1 mps 610 mmHg 73%
    22:00 +19°C° 0.6 mm 1 mps 611 mmHg 76%
    23:00 +19°C° 0 mm 1 mps 610 mmHg 77%

    25 October, Wednesday

    Time Temperature Precipitation Wind Pressure Humidity
    00:00 +19°C° 0 mm 1 mps 610 mmHg 78%
    01:00 +18°C° 0 mm 1 mps 609 mmHg 79%
    02:00 +18°C° 0.3 mm 1 mps 609 mmHg 79%
    03:00 +18°C° 0.3 mm 1 mps 609 mmHg 80%
    04:00 +18°C° 0.3 mm 1 mps 609 mmHg 81%
    05:00 +18°C° 0 mm 1 mps 609 mmHg 77%
    06:00 +19°C° 0 mm 1 mps 610 mmHg 73%
    07:00 +19°C° 0 mm 1 mps 610 mmHg 70%
    08:00 +22°C° 0.1 mm 1 mps 611 mmHg 60%
    09:00 +24°C° 0.1 mm 1 mps 612 mmHg 51%
    10:00 +26°C° 0.1 mm 1 mps 613 mmHg 41%
    11:00 +27°C° 0.2 mm 2 mps 613 mmHg 40%
    12:00 +28°C° 0.2 mm 2 mps 612 mmHg 38%
    13:00 +28°C° 0.2 mm 3 mps 612 mmHg 37%
    14:00 +27°C° 2.5 mm 3 mps 611 mmHg 42%
    15:00 +26°C° 2.5 mm 3 mps 610 mmHg 48%
    16:00 +24°C° 2.5 mm 3 mps 609 mmHg 54%
    17:00 +22°C° 4.1 mm 3 mps 609 mmHg 60%
    18:00 +20°C° 4.1 mm 2 mps 609 mmHg 67%
    19:00 +19°C° 4.1 mm 2 mps 609 mmHg 74%
    20:00 +19°C° 1.4 mm 2 mps 610 mmHg 74%
    21:00 +20°C° 1.4 mm 1 mps 610 mmHg 75%
    22:00 +20°C° 1.4 mm 1 mps 610 mmHg 75%
    23:00 +19°C° 0.9 mm 1 mps 610 mmHg 76%

    26 October, Thursday

    Time Temperature Precipitation Wind Pressure Humidity
    00:00 +19°C° 0.9 mm 1 mps 610 mmHg 77%
    01:00 +19°C° 0.9 mm 1 mps 609 mmHg 78%
    02:00 +19°C° 0.6 mm 1 mps 609 mmHg 79%
    03:00 +18°C° 0.6 mm 1 mps 609 mmHg 80%
    04:00 +18°C° 0.6 mm 1 mps 609 mmHg 80%
    05:00 +19°C° 0.1 mm 1 mps 609 mmHg 77%
    06:00 +19°C° 0.1 mm 1 mps 610 mmHg 73%
    07:00 +18°C° 0.1 mm 0 mps 610 mmHg 69%
    08:00 +22°C° 0 mm 1 mps 611 mmHg 60%
    09:00 +24°C° 0 mm 1 mps 612 mmHg 52%
    10:00 +26°C° 0 mm 2 mps 612 mmHg 43%
    11:00 +27°C° 0 mm 2 mps 612 mmHg 40%
    12:00 +28°C° 0 mm 1 mps 612 mmHg 37%
    13:00 +29°C° 0 mm 1 mps 612 mmHg 34%
    14:00 +28°C° 1.2 mm 2 mps 611 mmHg 39%
    15:00 +26°C° 1.2 mm 3 mps 610 mmHg 44%
    16:00 +25°C° 1.2 mm 3 mps 609 mmHg 49%
    17:00 +22°C° 3.6 mm 3 mps 609 mmHg 57%
    18:00 +20°C° 3.6 mm 3 mps 609 mmHg 65%
    19:00 +18°C° 3.6 mm 3 mps 609 mmHg 73%
    20:00 +18°C° 1.9 mm 2 mps 609 mmHg 73%
    21:00 +18°C° 1.9 mm 2 mps 609 mmHg 73%
    22:00 +19°C° 1.9 mm 1 mps 610 mmHg 72%
    23:00 +19°C° 0.1 mm 1 mps 609 mmHg 72%
    Show more